Hourly Weather Suhanovo

Today, 27 January, Wednesday

Time Temperature Precipitation Wind Pressure Humidity
00:00 -4°C° 0.3 mm 5 mps 726 mmHg 93%
01:00 -4°C° 0.3 mm 5 mps 726 mmHg 93%
02:00 -4°C° 0 mm 5 mps 725 mmHg 95%
03:00 -4°C° 0.6 mm 5 mps 725 mmHg 95%
04:00 -4°C° 0.6 mm 5 mps 725 mmHg 95%
05:00 -4°C° 0.6 mm 5 mps 725 mmHg 95%
06:00 -4°C° 0.4 mm 5 mps 725 mmHg 95%
07:00 -4°C° 0.4 mm 5 mps 726 mmHg 94%
08:00 -4°C° 0 mm 5 mps 726 mmHg 93%
09:00 -4°C° 0.1 mm 5 mps 727 mmHg 92%
10:00 -3°C° 0.1 mm 4 mps 728 mmHg 90%
11:00 -3°C° 0.1 mm 4 mps 729 mmHg 88%
12:00 -2°C° 0.1 mm 4 mps 729 mmHg 89%
13:00 -1°C° 0.1 mm 3 mps 730 mmHg 91%
14:00 -1°C° 0 mm 3 mps 730 mmHg 91%
15:00 -1°C° 0.1 mm 3 mps 731 mmHg 91%
16:00 -2°C° 0.1 mm 3 mps 731 mmHg 92%
17:00 -2°C° 0.1 mm 3 mps 732 mmHg 92%
18:00 -2°C° 0 mm 3 mps 732 mmHg 92%
19:00 -2°C° 0 mm 3 mps 732 mmHg 93%
20:00 -2°C° 0 mm 3 mps 733 mmHg 94%
21:00 -3°C° 0 mm 2 mps 733 mmHg 94%
22:00 -3°C° 0 mm 2 mps 733 mmHg 95%
23:00 -4°C° 0 mm 2 mps 733 mmHg 96%

Tomorrow, 28 January, Thursday

Time Temperature Precipitation Wind Pressure Humidity
00:00 -4°C° 0 mm 2 mps 733 mmHg 96%
01:00 -3°C° 0 mm 1 mps 733 mmHg 97%
02:00 -3°C° 0 mm 1 mps 733 mmHg 97%
03:00 -3°C° 0 mm 1 mps 733 mmHg 97%
04:00 -4°C° 0 mm 1 mps 733 mmHg 97%
05:00 -4°C° 0 mm 1 mps 733 mmHg 97%
06:00 -4°C° 0 mm 1 mps 733 mmHg 96%
07:00 -4°C° 0 mm 1 mps 733 mmHg 96%
08:00 -4°C° 0 mm 1 mps 733 mmHg 96%
09:00 -3°C° 0 mm 1 mps 733 mmHg 94%
10:00 -2°C° 0 mm 1 mps 733 mmHg 92%
11:00 -2°C° 0 mm 1 mps 733 mmHg 90%
12:00 -1°C° 0 mm 1 mps 732 mmHg 90%
13:00 -1°C° 0 mm 1 mps 732 mmHg 91%
14:00 -1°C° 0 mm 1 mps 732 mmHg 91%
15:00 -1°C° 0.2 mm 1 mps 731 mmHg 93%
16:00 -1°C° 0.2 mm 1 mps 731 mmHg 94%
17:00 -4°C° 0.2 mm 2 mps 731 mmHg 96%
18:00 -4°C° 0.4 mm 2 mps 730 mmHg 96%
19:00 -3°C° 0.4 mm 2 mps 730 mmHg 96%
20:00 -3°C° 0.4 mm 2 mps 729 mmHg 96%
21:00 -3°C° 0.4 mm 2 mps 729 mmHg 97%
22:00 -3°C° 0.4 mm 2 mps 728 mmHg 97%
23:00 -1°C° 0.4 mm 1 mps 728 mmHg 97%

Day after tomorrow, 29 January, Friday

Time Temperature Precipitation Wind Pressure Humidity
00:00 0°C° 0.3 mm 1 mps 727 mmHg 97%
01:00 0°C° 0.3 mm 1 mps 727 mmHg 98%
02:00 +1°C° 0.3 mm 1 mps 726 mmHg 98%
03:00 +1°C° 0.4 mm 2 mps 726 mmHg 98%
04:00 0°C° 0.4 mm 3 mps 725 mmHg 98%
05:00 0°C° 0.4 mm 4 mps 724 mmHg 98%
06:00 0°C° 0.2 mm 4 mps 724 mmHg 97%
07:00 0°C° 0.2 mm 4 mps 724 mmHg 97%
08:00 0°C° 0.2 mm 5 mps 723 mmHg 96%
09:00 -1°C° 0 mm 5 mps 723 mmHg 92%
10:00 -2°C° 0 mm 5 mps 723 mmHg 88%
11:00 -4°C° 0 mm 5 mps 722 mmHg 83%
12:00 -4°C° 0 mm 5 mps 722 mmHg 85%
13:00 -4°C° 0 mm 5 mps 722 mmHg 86%
14:00 -3°C° 0 mm 4 mps 721 mmHg 87%
15:00 -4°C° 0 mm 4 mps 721 mmHg 89%
16:00 -4°C° 0 mm 4 mps 721 mmHg 90%
17:00 -5°C° 0 mm 4 mps 721 mmHg 92%
18:00 -5°C° 0.1 mm 4 mps 720 mmHg 93%
19:00 -5°C° 0.1 mm 4 mps 720 mmHg 93%
20:00 -5°C° 0.1 mm 4 mps 720 mmHg 94%
21:00 -5°C° 0.2 mm 4 mps 720 mmHg 94%
22:00 -7°C° 0.2 mm 4 mps 720 mmHg 94%
23:00 -7°C° 0.2 mm 4 mps 720 mmHg 94%

30 January, Saturday

Time Temperature Precipitation Wind Pressure Humidity
00:00 -6°C° 0.1 mm 3 mps 720 mmHg 94%
01:00 -6°C° 0.1 mm 3 mps 721 mmHg 94%
02:00 -6°C° 0.1 mm 3 mps 721 mmHg 94%
03:00 -6°C° 0.2 mm 3 mps 721 mmHg 94%
04:00 -8°C° 0.2 mm 4 mps 721 mmHg 94%
05:00 -8°C° 0.2 mm 4 mps 721 mmHg 94%
06:00 -8°C° 0.2 mm 4 mps 721 mmHg 93%
07:00 -8°C° 0.2 mm 4 mps 721 mmHg 93%
08:00 -8°C° 0.2 mm 4 mps 721 mmHg 93%
09:00 -8°C° 0.1 mm 4 mps 722 mmHg 92%
10:00 -8°C° 0.1 mm 4 mps 722 mmHg 91%
11:00 -8°C° 0.1 mm 5 mps 722 mmHg 90%
12:00 -8°C° 0.1 mm 4 mps 723 mmHg 89%
13:00 -8°C° 0.1 mm 4 mps 723 mmHg 89%
14:00 -8°C° 0.1 mm 4 mps 723 mmHg 88%
15:00 -8°C° 0.1 mm 4 mps 723 mmHg 89%
16:00 -8°C° 0.1 mm 4 mps 723 mmHg 91%
17:00 -8°C° 0.1 mm 3 mps 723 mmHg 92%
18:00 -8°C° 0 mm 3 mps 724 mmHg 92%
19:00 -8°C° 0 mm 3 mps 724 mmHg 92%
20:00 -9°C° 0 mm 3 mps 724 mmHg 92%
21:00 -9°C° 0 mm 3 mps 724 mmHg 93%
22:00 -8°C° 0 mm 2 mps 723 mmHg 94%
23:00 -8°C° 0 mm 2 mps 723 mmHg 95%

31 January, Sunday

Time Temperature Precipitation Wind Pressure Humidity
00:00 -9°C° 0 mm 2 mps 723 mmHg 96%
01:00 -9°C° 0 mm 2 mps 723 mmHg 96%
02:00 -8°C° 0 mm 1 mps 723 mmHg 97%
03:00 -8°C° 0 mm 1 mps 722 mmHg 97%
04:00 -8°C° 0 mm 1 mps 722 mmHg 97%
05:00 -9°C° 0 mm 1 mps 722 mmHg 97%
06:00 -9°C° 0 mm 1 mps 722 mmHg 96%
07:00 -9°C° 0 mm 1 mps 721 mmHg 96%
08:00 -9°C° 0 mm 0 mps 721 mmHg 96%
09:00 -8°C° 0 mm 1 mps 721 mmHg 94%
10:00 -7°C° 0 mm 1 mps 721 mmHg 93%
11:00 -6°C° 0 mm 1 mps 721 mmHg 91%
12:00 -7°C° 0 mm 2 mps 721 mmHg 90%
13:00 -7°C° 0 mm 3 mps 721 mmHg 88%
14:00 -7°C° 0 mm 3 mps 722 mmHg 87%
15:00 -8°C° 0 mm 3 mps 722 mmHg 89%
16:00 -8°C° 0 mm 3 mps 723 mmHg 91%
17:00 -8°C° 0 mm 3 mps 723 mmHg 93%
18:00 -8°C° 0 mm 3 mps 724 mmHg 93%
19:00 -8°C° 0 mm 3 mps 724 mmHg 93%
20:00 -8°C° 0 mm 3 mps 725 mmHg 93%
21:00 -9°C° 0.1 mm 4 mps 725 mmHg 92%
22:00 -10°C° 0.1 mm 5 mps 726 mmHg 91%
23:00 -10°C° 0.1 mm 5 mps 726 mmHg 89%

1 February, Monday

Time Temperature Precipitation Wind Pressure Humidity
00:00 -10°C° 0 mm 5 mps 727 mmHg 90%
01:00 -9°C° 0 mm 4 mps 727 mmHg 90%
02:00 -10°C° 0 mm 4 mps 728 mmHg 91%
03:00 -9°C° 0.1 mm 4 mps 728 mmHg 92%
04:00 -9°C° 0.1 mm 4 mps 729 mmHg 92%
05:00 -8°C° 0.1 mm 4 mps 729 mmHg 93%
06:00 -8°C° 0.1 mm 4 mps 730 mmHg 92%
07:00 -8°C° 0.1 mm 4 mps 730 mmHg 92%
08:00 -8°C° 0.1 mm 4 mps 731 mmHg 92%
09:00 -8°C° 0 mm 4 mps 732 mmHg 91%
10:00 -8°C° 0 mm 4 mps 732 mmHg 90%
11:00 -8°C° 0 mm 4 mps 733 mmHg 90%
12:00 -8°C° 0 mm 4 mps 733 mmHg 90%
13:00 -7°C° 0 mm 3 mps 733 mmHg 89%
14:00 -7°C° 0 mm 3 mps 733 mmHg 89%
15:00 -8°C° 0 mm 3 mps 733 mmHg 90%
16:00 -8°C° 0 mm 3 mps 733 mmHg 92%
17:00 -9°C° 0 mm 3 mps 733 mmHg 93%
18:00 -9°C° 0 mm 2 mps 733 mmHg 94%
19:00 -9°C° 0 mm 2 mps 733 mmHg 94%
20:00 -9°C° 0 mm 1 mps 732 mmHg 95%
21:00 -10°C° 0 mm 1 mps 732 mmHg 94%
22:00 -10°C° 0 mm 1 mps 732 mmHg 93%
23:00 -10°C° 0 mm 1 mps 732 mmHg 92%
Show more